• In Hungary
  • List of Countries
  • For 7 days
  • Water Temperature
  • Satellite Maps
  • Weather Map
  • News
  • Weather Widgets
  • user-avatar
    Login

    Hourly Weather Coropceni

    Today, 19 October, Friday

    Time Temperature Precipitation Wind Pressure Humidity
    00:00 +14°C° 0 mm 0 mps 755 mmHg 54%
    01:00 +14°C° 0 mm 0 mps 755 mmHg 56%
    02:00 +13°C° 0 mm 0 mps 754 mmHg 58%
    03:00 +13°C° 0 mm 0 mps 754 mmHg 59%
    04:00 +13°C° 0 mm 0 mps 754 mmHg 60%
    05:00 +13°C° 0 mm 0 mps 754 mmHg 61%
    06:00 +14°C° 0 mm 0 mps 754 mmHg 60%
    07:00 +14°C° 0 mm 0 mps 754 mmHg 58%
    08:00 +15°C° 0 mm 0 mps 754 mmHg 57%
    09:00 +16°C° 0 mm 0 mps 754 mmHg 53%
    10:00 +19°C° 0 mm 1 mps 754 mmHg 48%
    11:00 +20°C° 0 mm 1 mps 754 mmHg 44%
    12:00 +21°C° 0 mm 1 mps 754 mmHg 43%
    13:00 +21°C° 0 mm 1 mps 754 mmHg 42%
    14:00 +22°C° 0 mm 1 mps 754 mmHg 41%
    15:00 +21°C° 0 mm 1 mps 754 mmHg 43%
    16:00 +20°C° 0 mm 1 mps 754 mmHg 45%
    17:00 +20°C° 0 mm 1 mps 754 mmHg 47%
    18:00 +19°C° 0 mm 1 mps 754 mmHg 47%
    19:00 +19°C° 0 mm 1 mps 754 mmHg 48%
    20:00 +18°C° 0 mm 1 mps 754 mmHg 48%
    21:00 +18°C° 0 mm 1 mps 754 mmHg 49%
    22:00 +18°C° 0 mm 1 mps 754 mmHg 51%
    23:00 +16°C° 0 mm 2 mps 754 mmHg 52%

    Tomorrow, 20 October, Saturday

    Time Temperature Precipitation Wind Pressure Humidity
    00:00 +16°C° 0 mm 2 mps 754 mmHg 54%
    01:00 +15°C° 0 mm 2 mps 754 mmHg 57%
    02:00 +15°C° 0 mm 2 mps 754 mmHg 60%
    03:00 +14°C° 0 mm 2 mps 754 mmHg 62%
    04:00 +14°C° 0 mm 2 mps 754 mmHg 64%
    05:00 +14°C° 0 mm 2 mps 754 mmHg 67%
    06:00 +14°C° 0 mm 2 mps 755 mmHg 66%
    07:00 +13°C° 0 mm 3 mps 755 mmHg 66%
    08:00 +13°C° 0 mm 3 mps 755 mmHg 66%
    09:00 +16°C° 0 mm 3 mps 755 mmHg 60%
    10:00 +18°C° 0 mm 3 mps 755 mmHg 54%
    11:00 +20°C° 0 mm 4 mps 755 mmHg 48%
    12:00 +20°C° 0 mm 4 mps 755 mmHg 45%
    13:00 +21°C° 0 mm 4 mps 755 mmHg 43%
    14:00 +22°C° 0 mm 4 mps 755 mmHg 41%
    15:00 +21°C° 0 mm 4 mps 755 mmHg 44%
    16:00 +20°C° 0 mm 4 mps 755 mmHg 47%
    17:00 +19°C° 0 mm 3 mps 755 mmHg 51%
    18:00 +18°C° 0 mm 3 mps 755 mmHg 54%
    19:00 +18°C° 0 mm 3 mps 755 mmHg 58%
    20:00 +17°C° 0 mm 3 mps 756 mmHg 61%
    21:00 +16°C° 0 mm 3 mps 756 mmHg 65%
    22:00 +16°C° 0 mm 3 mps 756 mmHg 68%
    23:00 +14°C° 0 mm 3 mps 756 mmHg 72%

    Day after tomorrow, 21 October, Sunday

    Time Temperature Precipitation Wind Pressure Humidity
    00:00 +14°C° 0 mm 3 mps 756 mmHg 75%
    01:00 +13°C° 0 mm 3 mps 756 mmHg 78%
    02:00 +13°C° 0 mm 3 mps 755 mmHg 82%
    03:00 +12°C° 0 mm 3 mps 755 mmHg 82%
    04:00 +12°C° 0 mm 3 mps 755 mmHg 83%
    05:00 +12°C° 0 mm 3 mps 755 mmHg 84%
    06:00 +12°C° 0 mm 3 mps 755 mmHg 81%
    07:00 +13°C° 0 mm 4 mps 755 mmHg 78%
    08:00 +13°C° 0 mm 4 mps 756 mmHg 75%
    09:00 +13°C° 0.1 mm 4 mps 756 mmHg 71%
    10:00 +14°C° 0.1 mm 4 mps 756 mmHg 67%
    11:00 +14°C° 0.1 mm 4 mps 755 mmHg 63%
    12:00 +14°C° 0.1 mm 4 mps 755 mmHg 59%
    13:00 +14°C° 0.1 mm 4 mps 755 mmHg 56%
    14:00 +15°C° 0.1 mm 4 mps 755 mmHg 52%
    15:00 +14°C° 0 mm 4 mps 755 mmHg 52%
    16:00 +14°C° 0 mm 4 mps 755 mmHg 52%
    17:00 +13°C° 0 mm 3 mps 755 mmHg 53%
    18:00 +13°C° 0 mm 3 mps 756 mmHg 55%
    19:00 +12°C° 0 mm 3 mps 756 mmHg 57%
    20:00 +12°C° 0 mm 3 mps 756 mmHg 59%
    21:00 +11°C° 0 mm 4 mps 756 mmHg 61%
    22:00 +11°C° 0 mm 4 mps 756 mmHg 62%
    23:00 +10°C° 0 mm 4 mps 756 mmHg 64%

    22 October, Monday

    Time Temperature Precipitation Wind Pressure Humidity
    00:00 +10°C° 0 mm 3 mps 756 mmHg 65%
    01:00 +10°C° 0 mm 3 mps 756 mmHg 67%
    02:00 +9°C° 0 mm 3 mps 756 mmHg 68%
    03:00 +9°C° 0 mm 3 mps 756 mmHg 70%
    04:00 +8°C° 0 mm 3 mps 756 mmHg 72%
    05:00 +8°C° 0 mm 3 mps 756 mmHg 73%
    06:00 +8°C° 0 mm 3 mps 756 mmHg 73%
    07:00 +8°C° 0 mm 4 mps 757 mmHg 73%
    08:00 +8°C° 0 mm 4 mps 757 mmHg 72%
    09:00 +11°C° 0 mm 4 mps 757 mmHg 68%
    10:00 +12°C° 0 mm 4 mps 757 mmHg 63%
    11:00 +14°C° 0 mm 5 mps 757 mmHg 58%
    12:00 +15°C° 0 mm 5 mps 756 mmHg 56%
    13:00 +15°C° 0 mm 5 mps 756 mmHg 54%
    14:00 +17°C° 0 mm 4 mps 755 mmHg 51%
    15:00 +15°C° 0 mm 4 mps 755 mmHg 54%
    16:00 +16°C° 0 mm 3 mps 755 mmHg 56%
    17:00 +14°C° 0 mm 3 mps 755 mmHg 58%
    18:00 +13°C° 0 mm 3 mps 755 mmHg 61%
    19:00 +12°C° 0 mm 3 mps 755 mmHg 64%
    20:00 +12°C° 0 mm 3 mps 755 mmHg 66%
    21:00 +11°C° 0 mm 3 mps 755 mmHg 68%
    22:00 +11°C° 0 mm 3 mps 754 mmHg 70%
    23:00 +10°C° 0 mm 3 mps 754 mmHg 71%

    23 October, Tuesday

    Time Temperature Precipitation Wind Pressure Humidity
    00:00 +10°C° 0 mm 3 mps 754 mmHg 72%
    01:00 +9°C° 0 mm 2 mps 754 mmHg 73%
    02:00 +9°C° 0 mm 2 mps 754 mmHg 74%
    03:00 +8°C° 0 mm 2 mps 753 mmHg 75%
    04:00 +8°C° 0 mm 2 mps 753 mmHg 76%
    05:00 +8°C° 0 mm 2 mps 753 mmHg 76%
    06:00 +8°C° 0 mm 2 mps 753 mmHg 74%
    07:00 +8°C° 0 mm 3 mps 753 mmHg 71%
    08:00 +8°C° 0 mm 3 mps 753 mmHg 69%
    09:00 +10°C° 0 mm 3 mps 753 mmHg 62%
    10:00 +12°C° 0 mm 3 mps 753 mmHg 56%
    11:00 +13°C° 0 mm 3 mps 753 mmHg 49%
    12:00 +14°C° 0 mm 3 mps 752 mmHg 47%
    13:00 +14°C° 0 mm 3 mps 752 mmHg 45%
    14:00 +16°C° 0 mm 3 mps 752 mmHg 43%
    15:00 +15°C° 0 mm 2 mps 752 mmHg 45%
    16:00 +15°C° 0 mm 2 mps 752 mmHg 48%
    17:00 +14°C° 0 mm 2 mps 752 mmHg 51%
    18:00 +13°C° 0 mm 2 mps 752 mmHg 54%
    19:00 +12°C° 0 mm 2 mps 752 mmHg 57%
    20:00 +10°C° 0 mm 3 mps 752 mmHg 60%
    21:00 +10°C° 0 mm 2 mps 752 mmHg 62%
    22:00 +9°C° 0 mm 2 mps 752 mmHg 64%
    23:00 +9°C° 0 mm 2 mps 752 mmHg 65%

    24 October, Wednesday

    Time Temperature Precipitation Wind Pressure Humidity
    00:00 +8°C° 0 mm 2 mps 752 mmHg 67%
    01:00 +8°C° 0 mm 3 mps 752 mmHg 68%
    02:00 +7°C° 0 mm 3 mps 752 mmHg 69%
    03:00 +7°C° 0 mm 2 mps 751 mmHg 72%
    04:00 +6°C° 0 mm 2 mps 751 mmHg 75%
    05:00 +6°C° 0 mm 2 mps 751 mmHg 78%
    06:00 +6°C° 0 mm 2 mps 751 mmHg 77%
    07:00 +6°C° 0 mm 2 mps 750 mmHg 77%
    08:00 +7°C° 0 mm 2 mps 750 mmHg 76%
    09:00 +8°C° 0 mm 2 mps 750 mmHg 67%
    10:00 +10°C° 0 mm 3 mps 749 mmHg 59%
    11:00 +11°C° 0 mm 3 mps 748 mmHg 50%
    12:00 +12°C° 0 mm 4 mps 747 mmHg 47%
    13:00 +13°C° 0 mm 5 mps 746 mmHg 45%
    14:00 +14°C° 0 mm 5 mps 745 mmHg 43%
    15:00 +14°C° 0 mm 5 mps 744 mmHg 41%
    16:00 +14°C° 0 mm 5 mps 743 mmHg 39%
    17:00 +13°C° 0 mm 5 mps 743 mmHg 37%
    18:00 +13°C° 0 mm 6 mps 742 mmHg 38%
    19:00 +13°C° 0 mm 6 mps 741 mmHg 40%
    20:00 +11°C° 0 mm 7 mps 741 mmHg 42%
    21:00 +11°C° 0.3 mm 7 mps 741 mmHg 48%
    22:00 +11°C° 0.3 mm 7 mps 740 mmHg 55%
    23:00 +10°C° 0.3 mm 7 mps 740 mmHg 61%
    Show more